Annapolis Naval Academy, MD

7:21 AM EDT on April 27, 2017 (GMT -0400)
Annapolis Naval Academy

Weather History for KNAK - April, 2013

Change the Weather History Date:

Wednesday, April 24, 2013

  Actual Average (KBWI) Record (KBWI)
Temperature  
Mean Temperature 57 °F -  
Max Temperature 68 °F 67 °F 93 °F (1960)
Min Temperature 48 °F 47 °F 32 °F (2003)
Degree Days  
Heating Degree Days 8    
Growing Degree Days 7 (Base 50)    
Moisture  
Dew Point 52 °F    
Average Humidity 85    
Maximum Humidity 97    
Minimum Humidity 70    
Precipitation  
Precipitation 0.00 in - - ()
Sea Level Pressure  
Sea Level Pressure 30.00 in    
Wind  
Wind Speed 8 mph (SSE)    
Max Wind Speed 18 mph    
Max Gust Speed 29 mph    
Visibility 8 miles    
Events      
Averages and records for this station are not official NWS values.
T = Trace of Precipitation, MM = Missing Value Source: NWS Daily Summary

Daily Weather History Graph

Daily Weather History Graph

Search for Another Location

Airport or City:

Trip Planner

Search our weather history database for the weather conditions in past years. The results will help you decide how hot, cold, wet, or windy it might be!

Date:

Astronomy

Apr. 24, 2013 Rise Set
Actual Time 6:16 AM EDT 7:52 PM EDT
Civil Twilight 5:48 AM EDT 8:20 PM EDT
Nautical Twilight 5:14 AM EDT 8:54 PM EDT
Astronomical Twilight 4:38 AM EDT 9:30 PM EDT
Moon 6:53 PM EDT (4/24) 5:18 AM EDT (4/24)
Length of Visible Light 14h 32m
Length of Day
13h 35m
Waxing Gibbous, 98% of the Moon is Illuminated
Apr 24
Waxing Gibbous
Apr 25
Full
May 2
Last Quarter
May 9
New
May 18
First Quarter

Hourly Weather History & Observations

Time (EDT) Temp. Dew Point Humidity Pressure Visibility Wind Dir Wind Speed Gust Speed Precip Events Conditions
12:54 AM 50.0 °F 48.0 °F 93% 30.13 in 8.0 mi ESE 8.1 mph - N/A   Clear
1:54 AM 50.0 °F 48.0 °F 93% 30.12 in 7.0 mi SE 8.1 mph - N/A   Scattered Clouds
2:54 AM 48.0 °F 46.0 °F 93% 30.11 in 6.0 mi SSE 5.8 mph - N/A   Partly Cloudy
3:38 AM 48.0 °F 46.9 °F 96% 30.10 in 6.0 mi SSE 4.6 mph - N/A   Mostly Cloudy
3:54 AM 48.0 °F 46.9 °F 96% 30.11 in 6.0 mi SSE 3.5 mph - N/A   Overcast
4:12 AM 48.0 °F 46.9 °F 96% 30.10 in 6.0 mi South 4.6 mph - N/A   Scattered Clouds
4:37 AM 48.9 °F 48.0 °F 97% 30.10 in 7.0 mi SSE 6.9 mph - N/A   Mostly Cloudy
4:54 AM 48.9 °F 48.0 °F 97% 30.10 in 7.0 mi SSE 5.8 mph - N/A   Overcast
5:54 AM 51.1 °F 48.9 °F 92% 30.10 in 7.0 mi South 4.6 mph - N/A   Overcast
6:37 AM 50.0 °F 48.9 °F 96% 30.09 in 5.0 mi South 4.6 mph - N/A   Scattered Clouds
6:54 AM 51.1 °F 50.0 °F 96% 30.09 in 6.0 mi South 6.9 mph - N/A   Clear
7:54 AM 54.0 °F 48.9 °F 83% 30.09 in 10.0 mi South 6.9 mph - N/A   Clear
8:54 AM 55.0 °F 50.0 °F 83% 30.08 in 10.0 mi South 10.4 mph - N/A   Clear
9:54 AM 57.0 °F 52.0 °F 83% 30.06 in 10.0 mi SSE 10.4 mph - N/A   Clear
10:54 AM 60.1 °F 54.0 °F 80% 30.03 in 9.0 mi SSE 11.5 mph - N/A   Clear
11:54 AM 61.0 °F 55.0 °F 81% 30.01 in 9.0 mi SSE 13.8 mph - N/A   Clear
12:54 PM 63.0 °F 55.0 °F 75% 29.96 in 10.0 mi SSE 13.8 mph 21.9 mph N/A   Clear
1:54 PM 63.0 °F 55.9 °F 78% 29.93 in 9.0 mi SE 18.4 mph - N/A   Clear
2:54 PM 66.0 °F 55.9 °F 70% 29.91 in 9.0 mi South 17.3 mph 24.2 mph N/A   Clear
3:54 PM 66.0 °F 57.0 °F 73% 29.89 in 9.0 mi South 17.3 mph 25.3 mph N/A   Clear
4:54 PM 64.9 °F 57.0 °F 75% 29.86 in 9.0 mi SSE 13.8 mph 28.8 mph N/A   Clear
5:54 PM 66.0 °F 55.9 °F 70% 29.83 in 10.0 mi SSE 15.0 mph - N/A   Clear
6:54 PM 64.0 °F 55.9 °F 75% 29.82 in 10.0 mi South 16.1 mph 24.2 mph N/A   Clear
7:54 PM 62.1 °F 55.9 °F 80% 29.83 in 9.0 mi South 15.0 mph - N/A   Clear
8:54 PM 61.0 °F 57.0 °F 87% 29.87 in 10.0 mi SSE 4.6 mph - N/A   Scattered Clouds
9:54 PM 64.0 °F 55.9 °F 75% 29.89 in 10.0 mi Calm Calm - N/A   Scattered Clouds
10:54 PM 61.0 °F 57.0 °F 87% 29.89 in 10.0 mi Calm Calm - N/A   Clear
11:54 PM 62.1 °F 55.9 °F 80% 29.91 in 10.0 mi West 4.6 mph - N/A   Partly Cloudy